This is the latest recevied weather packets stored in our database for station/object DM1HF-13. If no packets are shown the sender has not sent any weather packets the latest 1 day(s).
| Time | Temp. | Humidity | Pressure | Rain* | Wind** | Luminosity | Snow |
|---|---|---|---|---|---|---|---|
| 1777977316 | 17.22° C | 78% | 1011 hPa | 0 mm | 0.89 m/s, 308° | 88 W/m² | - |
| 1777977016 | 17.22° C | 77% | 1011.1 hPa | 0 mm | 0.89 m/s, 331° | 91 W/m² | - |
| 1777976716 | 17.22° C | 78% | 1011.2 hPa | 0 mm | 0.89 m/s, 324° | 102 W/m² | - |
| 1777976416 | 17.22° C | 81% | 1011.2 hPa | 0 mm | 0.89 m/s, 337° | 103 W/m² | - |
| 1777976116 | 17.22° C | 80% | 1011.4 hPa | 0 mm | 0.89 m/s, 285° | 103 W/m² | - |
| 1777975816 | 17.22° C | 81% | 1011.3 hPa | 0 mm | 0.45 m/s, 320° | 106 W/m² | - |
| 1777975516 | 17.22° C | 81% | 1011.4 hPa | 0 mm | 0.45 m/s, 281° | 93 W/m² | - |
| 1777975216 | 16.67° C | 82% | 1011.3 hPa | 0 mm | 0 m/s | 83 W/m² | - |
| 1777974916 | 17.22° C | 81% | 1011.3 hPa | 0 mm | 0 m/s | 82 W/m² | - |
| 1777974616 | 16.67° C | 83% | 1011.3 hPa | 0 mm | 0.45 m/s, 156° | 83 W/m² | - |
| 1777974316 | 16.67° C | 84% | 1011.3 hPa | 0 mm | 0.45 m/s, 160° | 83 W/m² | - |
| 1777974016 | 16.67° C | 84% | 1011.4 hPa | 0 mm | 0.89 m/s, 190° | 96 W/m² | - |
| 1777973716 | 16.67° C | 84% | 1011.5 hPa | 0 mm | 0.89 m/s, 144° | 97 W/m² | - |
| 1777973416 | 16.67° C | 81% | 1011.5 hPa | 0 mm | 0.45 m/s, 141° | 99 W/m² | - |
| 1777973116 | 16.11° C | 82% | 1011.5 hPa | 0 mm | 0.45 m/s, 159° | 89 W/m² | - |
| 1777972816 | 16.11° C | 84% | 1011.5 hPa | 0 mm | 0.45 m/s, 306° | 84 W/m² | - |
| 1777972516 | 16.11° C | 85% | 1011.4 hPa | 0 mm | 0.45 m/s, 304° | 74 W/m² | - |
| 1777972216 | 16.11° C | 84% | 1011.4 hPa | 0 mm | 0 m/s | 84 W/m² | - |
| 1777971916 | 16.11° C | 84% | 1011.4 hPa | 0 mm | 0.45 m/s, 312° | 98 W/m² | - |
| 1777971616 | 15.56° C | 85% | 1011.4 hPa | 0 mm | 0.89 m/s, 325° | 83 W/m² | - |
| 1777971316 | 15.56° C | 85% | 1011.4 hPa | 0 mm | 0.45 m/s, 6° | 78 W/m² | - |
| 1777971016 | 15.56° C | 85% | 1011.5 hPa | 0 mm | 0.45 m/s, 306° | 61 W/m² | - |
| 1777970716 | 15.56° C | 85% | 1011.5 hPa | 0 mm | 0.45 m/s, 342° | 65 W/m² | - |
| 1777970416 | 15.56° C | 86% | 1011.5 hPa | 0 mm | 0.45 m/s, 184° | 59 W/m² | - |
| 1777970116 | 15.56° C | 87% | 1011.4 hPa | 0 mm | 0 m/s | 49 W/m² | - |
* Rain latest hour (hover to see other rain measurements)
** Current wind speed in m/s (hover to see current wind gust speed)